Location: Tambov
(52.7163°N, 41.4075°E)
Time: 21:51:45
(UTC+03:00)

Envisat - Pass Details

Date: 12 March 2021
Orbit: 764 x 766 km, 98.1° (Epoch: 17 April)

Event Time Altitude Azimuth Distance (km) Brightness Sun altitude
Rises 18:43:28 0° 225° (SW) 3,227 7.0 -5.4°
Reaches altitude 10° 18:47:38 10° 259° (W) 2,308 7.1 -6.0°
Maximum altitude 18:49:13 11° 278° (W) 2,216 7.2 -6.2°
Drops below altitude 10° 18:50:49 10° 296° (WNW) 2,313 6.8 -6.5°
Sets 18:55:01 0° 330° (NNW) 3,247 6.8 -7.1°
